Time,TemperatureF,DewpointF,PressureIn,WindDirection,WindDirectionDegrees,WindSpeedMPH,WindSpeedGustMPH,Humidity,HourlyPrecipIn,Conditions,Clouds,dailyrainin,SolarRadiationWatts/m^2,SoftwareType,DateUTC
2013-08-23 00:01:00,58.8,49.8,29.62,WNW,292,0.0,0.0,72,0.00,,,0.00,0,WeatherCatV1.02B3,2013-08-23 07:01:00,
2013-08-23 00:06:00,58.4,49.4,29.62,WNW,292,0.0,0.0,72,0.00,,,0.00,0,WeatherCatV1.02B3,2013-08-23 07:06:00,
2013-08-23 00:11:00,57.8,49.2,29.62,WNW,292,0.0,0.0,73,0.00,,,0.00,0,WeatherCatV1.02B3,2013-08-23 07:11:00,
2013-08-23 00:16:00,57.5,48.5,29.62,WNW,292,0.0,0.0,72,0.00,,,0.00,0,WeatherCatV1.02B3,2013-08-23 07:16:00,
2013-08-23 00:21:00,57.3,49.1,29.62,WNW,292,0.0,0.0,74,0.00,,,0.00,0,WeatherCatV1.02B3,2013-08-23 07:21:00,
2013-08-23 00:26:00,57.3,48.7,29.62,WNW,292,0.0,0.0,73,0.00,,,0.00,0,WeatherCatV1.02B3,2013-08-23 07:26:00,
2013-08-23 00:31:00,57.0,48.4,29.62,WNW,292,0.0,0.0,73,0.00,,,0.00,0,WeatherCatV1.02B3,2013-08-23 07:31:00,
2013-08-23 00:36:00,57.2,48.6,29.62,WNW,292,0.0,0.0,73,0.00,,,0.00,0,WeatherCatV1.02B3,2013-08-23 07:36:00,
2013-08-23 00:41:00,56.4,47.9,29.62,WNW,292,0.0,0.0,73,0.00,,,0.00,0,WeatherCatV1.02B3,2013-08-23 07:41:00,
2013-08-23 00:46:00,56.8,48.6,29.62,WNW,292,0.0,0.0,74,0.00,,,0.00,0,WeatherCatV1.02B3,2013-08-23 07:46:00,
2013-08-23 00:51:00,56.1,46.8,29.62,WNW,292,0.0,0.0,71,0.00,,,0.00,0,WeatherCatV1.02B3,2013-08-23 07:51:00,
2013-08-23 00:56:00,55.8,47.6,29.62,WNW,292,0.0,0.0,74,0.00,,,0.00,0,WeatherCatV1.02B3,2013-08-23 07:56:00,
2013-08-23 01:01:00,56.0,47.8,29.62,WNW,292,0.0,0.0,74,0.00,,,0.00,0,WeatherCatV1.02B3,2013-08-23 08:01:00,
2013-08-23 01:06:00,56.3,48.1,29.62,WNW,292,0.0,0.0,74,0.00,,,0.00,0,WeatherCatV1.02B3,2013-08-23 08:06:00,
2013-08-23 01:11:00,56.7,48.5,29.62,WNW,292,0.0,0.0,74,0.00,,,0.00,0,WeatherCatV1.02B3,2013-08-23 08:11:00,
2013-08-23 01:16:00,56.8,48.2,29.62,NW,320,0.0,1.0,73,0.00,,,0.00,0,WeatherCatV1.02B3,2013-08-23 08:16:00,
2013-08-23 01:21:00,57.6,48.6,29.62,NNE,30,1.0,2.0,72,0.00,,,0.00,0,WeatherCatV1.02B3,2013-08-23 08:21:00,
2013-08-23 01:26:00,58.2,48.5,29.62,NNE,32,0.0,0.0,70,0.00,,,0.00,0,WeatherCatV1.02B3,2013-08-23 08:26:00,
2013-08-23 01:31:00,57.6,47.9,29.62,NNE,32,0.0,1.0,70,0.00,,,0.00,0,WeatherCatV1.02B3,2013-08-23 08:31:00,
2013-08-23 01:36:00,57.6,48.3,29.62,East,80,0.0,0.0,71,0.00,,,0.00,0,WeatherCatV1.02B3,2013-08-23 08:36:00,
2013-08-23 01:41:00,56.4,47.1,29.62,East,80,0.0,1.0,71,0.00,,,0.00,0,WeatherCatV1.02B3,2013-08-23 08:41:00,
2013-08-23 01:46:00,55.3,47.2,29.62,East,80,0.0,0.0,74,0.00,,,0.00,0,WeatherCatV1.02B3,2013-08-23 08:46:00,
2013-08-23 01:51:00,55.4,47.3,29.62,East,80,0.0,0.0,74,0.00,,,0.00,0,WeatherCatV1.02B3,2013-08-23 08:51:00,
2013-08-23 01:56:00,55.5,47.3,29.62,East,80,0.0,1.0,74,0.00,,,0.00,0,WeatherCatV1.02B3,2013-08-23 08:56:00,
2013-08-23 02:01:00,55.6,47.8,29.62,East,80,0.0,0.0,75,0.00,,,0.00,0,WeatherCatV1.02B3,2013-08-23 09:01:00,
2013-08-23 02:06:00,55.2,47.1,29.62,East,80,0.0,0.0,74,0.00,,,0.00,0,WeatherCatV1.02B3,2013-08-23 09:06:00,
2013-08-23 02:11:00,55.0,47.2,29.62,East,80,0.0,0.0,75,0.00,,,0.00,0,WeatherCatV1.02B3,2013-08-23 09:11:00,
2013-08-23 02:16:00,55.3,47.5,29.62,East,80,0.0,0.0,75,0.00,,,0.00,0,WeatherCatV1.02B3,2013-08-23 09:16:00,
2013-08-23 02:21:00,55.5,47.3,29.62,East,80,0.0,0.0,74,0.00,,,0.00,0,WeatherCatV1.02B3,2013-08-23 09:21:00,
2013-08-23 02:26:00,55.2,47.1,29.62,East,80,0.0,0.0,74,0.00,,,0.00,0,WeatherCatV1.02B3,2013-08-23 09:26:00,
2013-08-23 02:31:00,54.5,46.7,29.62,East,80,0.0,0.0,75,0.00,,,0.00,0,WeatherCatV1.02B3,2013-08-23 09:31:00,
2013-08-23 02:36:00,53.8,46.8,29.62,East,80,0.0,0.0,77,0.00,,,0.00,0,WeatherCatV1.02B3,2013-08-23 09:36:00,
2013-08-23 02:41:00,53.9,46.5,29.62,East,80,0.0,0.0,76,0.00,,,0.00,0,WeatherCatV1.02B3,2013-08-23 09:41:00,
2013-08-23 02:46:00,54.2,47.1,29.62,East,80,0.0,0.0,77,0.00,,,0.00,0,WeatherCatV1.02B3,2013-08-23 09:46:00,
2013-08-23 02:51:00,54.4,47.0,29.62,East,80,0.0,0.0,76,0.00,,,0.00,0,WeatherCatV1.02B3,2013-08-23 09:51:00,
2013-08-23 02:56:00,54.9,47.5,29.62,NE,55,0.0,0.0,76,0.00,,,0.00,0,WeatherCatV1.02B3,2013-08-23 09:56:00,
2013-08-23 03:01:00,54.6,47.2,29.62,NE,55,0.0,1.0,76,0.00,,,0.00,0,WeatherCatV1.02B3,2013-08-23 10:01:00,
2013-08-23 03:06:00,55.1,47.7,29.62,NE,50,0.0,1.0,76,0.00,,,0.00,0,WeatherCatV1.02B3,2013-08-23 10:06:00,
2013-08-23 03:11:00,54.9,46.4,29.62,NE,50,0.0,1.0,73,0.00,,,0.00,0,WeatherCatV1.02B3,2013-08-23 10:11:00,
2013-08-23 03:16:00,53.9,46.2,29.62,NE,50,0.0,0.0,75,0.00,,,0.00,0,WeatherCatV1.02B3,2013-08-23 10:16:00,
2013-08-23 03:21:00,53.9,46.5,29.62,NE,50,0.0,0.0,76,0.00,,,0.00,0,WeatherCatV1.02B3,2013-08-23 10:21:00,
2013-08-23 03:26:00,53.8,46.8,29.62,NE,50,0.0,0.0,77,0.00,,,0.00,0,WeatherCatV1.02B3,2013-08-23 10:26:00,
2013-08-23 03:31:00,53.4,46.4,29.62,NE,50,0.0,0.0,77,0.00,,,0.00,0,WeatherCatV1.02B3,2013-08-23 10:31:00,
2013-08-23 03:36:00,53.2,46.5,29.62,NE,50,0.0,0.0,78,0.00,,,0.00,0,WeatherCatV1.02B3,2013-08-23 10:36:00,
2013-08-23 03:41:00,53.1,46.1,29.62,NE,50,0.0,0.0,77,0.00,,,0.00,0,WeatherCatV1.02B3,2013-08-23 10:41:00,
2013-08-23 03:46:00,53.3,46.3,29.62,NE,50,0.0,0.0,77,0.00,,,0.00,0,WeatherCatV1.02B3,2013-08-23 10:46:00,
2013-08-23 03:51:00,53.2,46.2,29.62,NE,50,0.0,0.0,77,0.00,,,0.00,0,WeatherCatV1.02B3,2013-08-23 10:51:00,
2013-08-23 03:56:00,52.8,46.5,29.62,NE,50,0.0,0.0,79,0.00,,,0.00,0,WeatherCatV1.02B3,2013-08-23 10:56:00,
2013-08-23 04:01:00,52.3,45.6,29.62,NE,50,0.0,0.0,78,0.00,,,0.00,0,WeatherCatV1.02B3,2013-08-23 11:01:00,
2013-08-23 04:06:00,52.2,45.9,29.62,NE,50,0.0,0.0,79,0.00,,,0.00,0,WeatherCatV1.02B3,2013-08-23 11:06:00,
2013-08-23 04:11:00,52.5,46.5,29.62,NE,50,0.0,0.0,80,0.00,,,0.00,0,WeatherCatV1.02B3,2013-08-23 11:11:00,
2013-08-23 04:16:00,52.0,45.4,29.62,NE,50,0.0,0.0,78,0.00,,,0.00,0,WeatherCatV1.02B3,2013-08-23 11:16:00,
2013-08-23 04:21:00,52.2,45.9,29.62,NE,50,0.0,0.0,79,0.00,,,0.00,0,WeatherCatV1.02B3,2013-08-23 11:21:00,
2013-08-23 04:26:00,51.8,45.2,29.62,NE,50,0.0,0.0,78,0.00,,,0.00,0,WeatherCatV1.02B3,2013-08-23 11:26:00,
2013-08-23 04:31:00,52.0,45.7,29.62,NE,50,0.0,0.0,79,0.00,,,0.00,0,WeatherCatV1.02B3,2013-08-23 11:31:00,
2013-08-23 04:36:00,51.8,45.5,29.62,NE,50,0.0,0.0,79,0.00,,,0.00,0,WeatherCatV1.02B3,2013-08-23 11:36:00,
2013-08-23 04:41:00,52.2,45.9,29.62,NE,50,0.0,0.0,79,0.00,,,0.00,0,WeatherCatV1.02B3,2013-08-23 11:41:00,
2013-08-23 04:46:00,52.2,45.9,29.62,NE,50,0.0,0.0,79,0.00,,,0.00,0,WeatherCatV1.02B3,2013-08-23 11:46:00,
2013-08-23 04:51:00,52.3,45.6,29.62,NE,50,0.0,0.0,78,0.00,,,0.00,0,WeatherCatV1.02B3,2013-08-23 11:51:00,
2013-08-23 04:56:00,51.8,45.5,29.62,NE,50,0.0,0.0,79,0.00,,,0.00,0,WeatherCatV1.02B3,2013-08-23 11:56:00,
2013-08-23 05:01:00,51.9,45.6,29.62,NE,50,0.0,1.0,79,0.00,,,0.00,0,WeatherCatV1.02B3,2013-08-23 12:01:00,
2013-08-23 05:06:00,51.7,45.1,29.62,NE,50,0.0,0.0,78,0.00,,,0.00,0,WeatherCatV1.02B3,2013-08-23 12:06:00,
2013-08-23 05:11:00,51.4,45.1,29.62,NE,50,0.0,1.0,79,0.00,,,0.00,0,WeatherCatV1.02B3,2013-08-23 12:11:00,
2013-08-23 05:16:00,51.3,45.3,29.62,NE,50,0.0,0.0,80,0.00,,,0.00,0,WeatherCatV1.02B3,2013-08-23 12:16:00,
2013-08-23 05:21:00,51.5,45.5,29.62,NE,50,0.0,0.0,80,0.00,,,0.00,0,WeatherCatV1.02B3,2013-08-23 12:21:00,
2013-08-23 05:26:00,51.5,45.2,29.62,NE,50,0.0,0.0,79,0.00,,,0.00,0,WeatherCatV1.02B3,2013-08-23 12:26:00,
2013-08-23 05:31:00,51.5,45.2,29.62,NE,50,0.0,0.0,79,0.00,,,0.00,0,WeatherCatV1.02B3,2013-08-23 12:31:00,
2013-08-23 05:36:00,51.4,45.1,29.62,NE,50,0.0,0.0,79,0.00,,,0.00,0,WeatherCatV1.02B3,2013-08-23 12:36:00,
2013-08-23 05:41:00,51.1,44.8,29.62,NE,50,0.0,0.0,79,0.00,,,0.00,0,WeatherCatV1.02B3,2013-08-23 12:41:00,
2013-08-23 05:46:00,50.8,44.9,29.62,NE,50,0.0,0.0,80,0.00,,,0.00,0,WeatherCatV1.02B3,2013-08-23 12:46:00,
2013-08-23 05:51:00,50.4,44.5,29.62,NE,50,0.0,0.0,80,0.00,,,0.00,0,WeatherCatV1.02B3,2013-08-23 12:51:00,
2013-08-23 05:56:00,50.4,44.5,29.62,NE,50,0.0,0.0,80,0.00,,,0.00,0,WeatherCatV1.02B3,2013-08-23 12:56:00,
2013-08-23 06:01:00,50.1,44.5,29.62,NE,50,0.0,0.0,81,0.00,,,0.00,0,WeatherCatV1.02B3,2013-08-23 13:01:00,
2013-08-23 06:06:00,50.2,44.9,29.62,NE,50,0.0,0.0,82,0.00,,,0.00,0,WeatherCatV1.02B3,2013-08-23 13:06:00,
2013-08-23 06:11:00,50.4,44.8,29.62,NE,50,0.0,0.0,81,0.00,,,0.00,0,WeatherCatV1.02B3,2013-08-23 13:11:00,
2013-08-23 06:16:00,50.3,44.7,29.62,NE,50,0.0,0.0,81,0.00,,,0.00,0,WeatherCatV1.02B3,2013-08-23 13:16:00,
2013-08-23 06:21:00,50.0,44.4,29.62,NE,50,0.0,1.0,81,0.00,,,0.00,0,WeatherCatV1.02B3,2013-08-23 13:21:00,
2013-08-23 06:26:00,50.1,44.5,29.62,NE,50,0.0,0.0,81,0.00,,,0.00,0,WeatherCatV1.02B3,2013-08-23 13:26:00,
2013-08-23 06:31:00,49.4,43.5,29.62,NE,50,0.0,0.0,80,0.00,,,0.00,5,WeatherCatV1.02B3,2013-08-23 13:31:00,
2013-08-23 06:36:00,49.2,43.6,29.62,NE,50,0.0,0.0,81,0.00,,,0.00,7,WeatherCatV1.02B3,2013-08-23 13:36:00,
2013-08-23 06:41:00,49.7,44.4,29.62,NE,50,0.0,0.0,82,0.00,,,0.00,9,WeatherCatV1.02B3,2013-08-23 13:41:00,
2013-08-23 06:46:00,49.8,44.2,29.62,NE,50,0.0,0.0,81,0.00,,,0.00,11,WeatherCatV1.02B3,2013-08-23 13:46:00,
2013-08-23 06:51:00,49.2,43.3,29.62,NE,50,0.0,0.0,80,0.00,,,0.00,12,WeatherCatV1.02B3,2013-08-23 13:51:00,
2013-08-23 06:56:00,49.3,43.7,29.62,NE,50,0.0,0.0,81,0.00,,,0.00,14,WeatherCatV1.02B3,2013-08-23 13:56:00,
2013-08-23 07:01:00,49.6,44.0,29.62,NE,50,0.0,0.0,81,0.00,,,0.00,16,WeatherCatV1.02B3,2013-08-23 14:01:00,
2013-08-23 07:06:00,50.1,44.2,29.62,NE,50,0.0,1.0,80,0.00,,,0.00,18,WeatherCatV1.02B3,2013-08-23 14:06:00,
2013-08-23 07:11:00,50.3,44.4,29.62,NE,50,0.0,0.0,80,0.00,,,0.00,19,WeatherCatV1.02B3,2013-08-23 14:11:00,
2013-08-23 07:16:00,50.4,44.5,29.62,NE,50,0.0,0.0,80,0.00,,,0.00,21,WeatherCatV1.02B3,2013-08-23 14:16:00,
2013-08-23 07:21:00,50.5,44.9,29.62,NE,50,1.0,1.0,81,0.00,,,0.00,23,WeatherCatV1.02B3,2013-08-23 14:21:00,
2013-08-23 07:26:00,51.3,45.3,29.62,NE,50,0.0,0.0,80,0.00,,,0.00,25,WeatherCatV1.02B3,2013-08-23 14:26:00,
2013-08-23 07:31:00,53.2,46.2,29.62,NE,50,1.0,1.0,77,0.00,,,0.00,25,WeatherCatV1.02B3,2013-08-23 14:31:00,
2013-08-23 07:36:00,53.1,45.4,29.62,NE,50,0.0,0.0,75,0.00,,,0.00,25,WeatherCatV1.02B3,2013-08-23 14:36:00,
2013-08-23 07:41:00,53.7,46.0,29.62,NE,50,0.0,0.0,75,0.00,,,0.00,26,WeatherCatV1.02B3,2013-08-23 14:41:00,
2013-08-23 07:46:00,54.8,46.3,29.62,NE,50,0.0,0.0,73,0.00,,,0.00,32,WeatherCatV1.02B3,2013-08-23 14:46:00,
2013-08-23 07:51:00,55.6,46.3,29.62,NE,50,0.0,1.0,71,0.00,,,0.00,32,WeatherCatV1.02B3,2013-08-23 14:51:00,
2013-08-23 07:56:00,56.7,46.6,29.62,NE,50,0.0,1.0,69,0.00,,,0.00,44,WeatherCatV1.02B3,2013-08-23 14:56:00,
2013-08-23 08:01:00,57.3,46.8,29.62,NE,50,0.0,1.0,68,0.00,,,0.00,39,WeatherCatV1.02B3,2013-08-23 15:01:00,
2013-08-23 08:06:00,58.2,46.5,29.62,NE,50,0.0,0.0,65,0.00,,,0.00,30,WeatherCatV1.02B3,2013-08-23 15:06:00,
2013-08-23 08:11:00,58.9,46.3,29.62,NE,50,0.0,0.0,63,0.00,,,0.00,42,WeatherCatV1.02B3,2013-08-23 15:11:00,
2013-08-23 08:16:00,59.5,46.5,29.62,NE,50,0.0,0.0,62,0.00,,,0.00,179,WeatherCatV1.02B3,2013-08-23 15:16:00,
2013-08-23 08:21:00,60.2,47.1,29.62,NE,50,0.0,0.0,62,0.00,,,0.00,111,WeatherCatV1.02B3,2013-08-23 15:21:00,
2013-08-23 08:26:00,61.3,48.2,29.62,NE,50,0.0,0.0,62,0.00,,,0.00,132,WeatherCatV1.02B3,2013-08-23 15:26:00,
2013-08-23 08:31:00,62.3,48.7,29.62,NE,50,0.0,0.0,61,0.00,,,0.00,357,WeatherCatV1.02B3,2013-08-23 15:31:00,
2013-08-23 08:37:00,63.6,47.6,29.62,NE,50,0.0,0.0,56,0.00,,,0.00,374,WeatherCatV1.02B3,2013-08-23 15:37:00,
2013-08-23 08:42:00,65.2,50.5,29.62,NE,41,0.0,0.0,59,0.00,,,0.00,392,WeatherCatV1.02B3,2013-08-23 15:42:00,
2013-08-23 08:47:00,66.2,50.0,29.62,ENE,71,0.0,1.0,56,0.00,,,0.00,408,WeatherCatV1.02B3,2013-08-23 15:47:00,
2013-08-23 08:52:00,67.4,50.7,29.62,ENE,71,0.0,0.0,55,0.00,,,0.00,425,WeatherCatV1.02B3,2013-08-23 15:52:00,
2013-08-23 08:57:00,68.3,51.0,29.62,WSW,252,0.0,2.0,54,0.00,,,0.00,443,WeatherCatV1.02B3,2013-08-23 15:57:00,
2013-08-23 09:02:00,69.5,51.1,29.62,WSW,252,0.0,1.0,52,0.00,,,0.00,459,WeatherCatV1.02B3,2013-08-23 16:02:00,
2013-08-23 09:07:00,70.3,50.8,29.62,WSW,250,0.0,0.0,50,0.00,,,0.00,476,WeatherCatV1.02B3,2013-08-23 16:07:00,
2013-08-23 09:12:00,71.3,50.0,29.62,ESE,103,0.0,1.0,47,0.00,,,0.00,490,WeatherCatV1.02B3,2013-08-23 16:12:00,
2013-08-23 09:17:00,72.0,48.3,29.62,NE,44,0.0,0.0,43,0.00,,,0.00,506,WeatherCatV1.02B3,2013-08-23 16:17:00,
2013-08-23 09:22:00,73.5,49.0,29.62,NE,44,0.0,0.0,42,0.00,,,0.00,520,WeatherCatV1.02B3,2013-08-23 16:22:00,
2013-08-23 09:27:00,74.8,50.2,29.62,SSE,165,2.0,2.0,42,0.00,,,0.00,534,WeatherCatV1.02B3,2013-08-23 16:27:00,
2013-08-23 09:32:00,74.8,51.4,29.62,WNW,290,1.0,1.0,44,0.00,,,0.00,550,WeatherCatV1.02B3,2013-08-23 16:32:00,
2013-08-23 09:37:00,75.7,52.8,29.62,NNW,329,0.0,1.0,45,0.00,,,0.00,564,WeatherCatV1.02B3,2013-08-23 16:37:00,
2013-08-23 09:42:00,76.8,52.6,29.62,NW,309,0.0,1.0,43,0.00,,,0.00,580,WeatherCatV1.02B3,2013-08-23 16:42:00,
2013-08-23 09:47:00,76.9,52.7,29.62,SW,228,3.0,3.0,43,0.00,,,0.00,594,WeatherCatV1.02B3,2013-08-23 16:47:00,
2013-08-23 09:52:00,76.9,53.9,29.62,WSW,254,0.0,4.0,45,0.00,,,0.00,605,WeatherCatV1.02B3,2013-08-23 16:52:00,
2013-08-23 09:57:00,77.8,53.5,29.62,SW,218,0.0,0.0,43,0.00,,,0.00,619,WeatherCatV1.02B3,2013-08-23 16:57:00,
2013-08-23 10:02:00,78.6,54.2,29.62,SW,230,1.0,3.0,43,0.00,,,0.00,633,WeatherCatV1.02B3,2013-08-23 17:02:00,
2013-08-23 10:07:00,79.8,54.6,29.62,WSW,248,1.0,1.0,42,0.00,,,0.00,647,WeatherCatV1.02B3,2013-08-23 17:07:00,
2013-08-23 10:12:00,80.5,53.2,29.62,West,263,0.0,2.0,39,0.00,,,0.00,661,WeatherCatV1.02B3,2013-08-23 17:12:00,
2013-08-23 10:17:00,80.9,53.6,29.62,SSE,165,0.0,3.0,39,0.00,,,0.00,675,WeatherCatV1.02B3,2013-08-23 17:17:00,
2013-08-23 10:22:00,81.5,53.4,29.62,SSW,205,0.0,3.0,38,0.00,,,0.00,687,WeatherCatV1.02B3,2013-08-23 17:22:00,
2013-08-23 10:27:00,81.6,54.2,29.62,SW,218,0.0,3.0,39,0.00,,,0.00,700,WeatherCatV1.02B3,2013-08-23 17:27:00,
2013-08-23 10:32:00,82.5,53.6,29.62,East,92,1.0,2.0,37,0.00,,,0.00,712,WeatherCatV1.02B3,2013-08-23 17:32:00,
2013-08-23 10:37:00,83.1,53.3,29.62,SE,124,0.0,1.0,36,0.00,,,0.00,721,WeatherCatV1.02B3,2013-08-23 17:37:00,
2013-08-23 10:42:00,83.5,52.1,29.62,ESE,115,2.0,2.0,34,0.00,,,0.00,733,WeatherCatV1.02B3,2013-08-23 17:42:00,
2013-08-23 10:47:00,83.3,52.8,29.62,WSW,256,0.0,3.0,35,0.00,,,0.00,745,WeatherCatV1.02B3,2013-08-23 17:47:00,
2013-08-23 10:52:00,84.5,53.0,29.62,West,268,3.0,4.0,34,0.00,,,0.00,756,WeatherCatV1.02B3,2013-08-23 17:52:00,
2013-08-23 10:57:00,85.3,52.9,29.62,NW,309,4.0,5.0,33,0.00,,,0.00,765,WeatherCatV1.02B3,2013-08-23 17:57:00,
2013-08-23 11:02:00,85.3,52.9,29.62,WNW,284,3.0,6.0,33,0.00,,,0.00,777,WeatherCatV1.02B3,2013-08-23 18:02:00,
2013-08-23 11:07:00,85.0,53.5,29.62,NW,304,6.0,8.0,34,0.00,,,0.00,782,WeatherCatV1.02B3,2013-08-23 18:07:00,
2013-08-23 11:12:00,85.1,54.3,29.62,WNW,293,2.0,5.0,35,0.00,,,0.00,789,WeatherCatV1.02B3,2013-08-23 18:12:00,
2013-08-23 11:17:00,85.4,53.8,29.62,NNW,340,1.0,3.0,34,0.00,,,0.00,800,WeatherCatV1.02B3,2013-08-23 18:17:00,
2013-08-23 11:22:00,85.5,54.7,29.62,WNW,293,4.0,5.0,35,0.00,,,0.00,810,WeatherCatV1.02B3,2013-08-23 18:22:00,
2013-08-23 11:27:00,85.5,55.5,29.62,West,280,3.0,8.0,36,0.00,,,0.00,817,WeatherCatV1.02B3,2013-08-23 18:27:00,
2013-08-23 11:32:00,85.2,56.0,29.62,WNW,288,3.0,7.0,37,0.00,,,0.00,824,WeatherCatV1.02B3,2013-08-23 18:32:00,
2013-08-23 11:37:00,85.5,55.5,29.62,WSW,254,7.0,7.0,36,0.00,,,0.00,835,WeatherCatV1.02B3,2013-08-23 18:37:00,
2013-08-23 11:42:00,86.2,55.3,29.62,NW,306,3.0,7.0,35,0.00,,,0.00,835,WeatherCatV1.02B3,2013-08-23 18:42:00,
2013-08-23 11:47:00,86.0,55.1,29.62,West,275,4.0,7.0,35,0.00,,,0.00,846,WeatherCatV1.02B3,2013-08-23 18:47:00,
2013-08-23 11:52:00,85.7,54.1,29.62,NW,305,4.0,6.0,34,0.00,,,0.00,854,WeatherCatV1.02B3,2013-08-23 18:52:00,
2013-08-23 11:57:00,86.3,54.6,29.62,WNW,293,1.0,7.0,34,0.00,,,0.00,856,WeatherCatV1.02B3,2013-08-23 18:57:00,
2013-08-23 12:02:00,86.7,53.3,29.62,NW,309,3.0,7.0,32,0.00,,,0.00,860,WeatherCatV1.02B3,2013-08-23 19:02:00,
2013-08-23 12:07:00,86.8,53.4,29.62,WNW,286,2.0,7.0,32,0.00,,,0.00,867,WeatherCatV1.02B3,2013-08-23 19:07:00,
2013-08-23 12:12:00,86.5,50.4,29.62,NW,323,3.0,8.0,29,0.00,,,0.00,874,WeatherCatV1.02B3,2013-08-23 19:12:00,
2013-08-23 12:17:00,85.9,51.7,29.62,NNW,333,3.0,8.0,31,0.00,,,0.00,877,WeatherCatV1.02B3,2013-08-23 19:17:00,
2013-08-23 12:22:00,86.3,52.1,29.62,WNW,290,3.0,8.0,31,0.00,,,0.00,882,WeatherCatV1.02B3,2013-08-23 19:22:00,
2013-08-23 12:27:00,86.8,51.6,29.62,WNW,284,5.0,7.0,30,0.00,,,0.00,886,WeatherCatV1.02B3,2013-08-23 19:27:00,
2013-08-23 12:32:00,86.8,51.6,29.62,West,262,7.0,7.0,30,0.00,,,0.00,889,WeatherCatV1.02B3,2013-08-23 19:32:00,
2013-08-23 12:37:00,86.8,50.7,29.62,NW,309,6.0,8.0,29,0.00,,,0.00,888,WeatherCatV1.02B3,2013-08-23 19:37:00,
2013-08-23 12:42:00,86.3,51.2,29.62,WNW,286,6.0,9.0,30,0.00,,,0.00,893,WeatherCatV1.02B3,2013-08-23 19:42:00,
2013-08-23 12:47:00,86.7,51.5,29.62,West,275,7.0,7.0,30,0.00,,,0.00,893,WeatherCatV1.02B3,2013-08-23 19:47:00,
2013-08-23 12:52:00,87.3,52.0,29.62,SW,236,5.0,10.0,30,0.00,,,0.00,893,WeatherCatV1.02B3,2013-08-23 19:52:00,
2013-08-23 12:57:00,87.7,52.4,29.62,West,272,4.0,6.0,30,0.00,,,0.00,895,WeatherCatV1.02B3,2013-08-23 19:57:00,
2013-08-23 13:02:00,88.2,51.9,29.62,NNW,333,2.0,3.0,29,0.00,,,0.00,896,WeatherCatV1.02B3,2013-08-23 20:02:00,
2013-08-23 13:07:00,88.8,51.5,29.62,West,260,7.0,8.0,28,0.00,,,0.00,895,WeatherCatV1.02B3,2013-08-23 20:07:00,
2013-08-23 13:12:00,89.2,52.7,29.62,SW,227,3.0,4.0,29,0.00,,,0.00,895,WeatherCatV1.02B3,2013-08-23 20:12:00,
2013-08-23 13:17:00,88.9,51.5,29.62,NW,325,6.0,9.0,28,0.00,,,0.00,895,WeatherCatV1.02B3,2013-08-23 20:17:00,
2013-08-23 13:22:00,88.7,51.4,29.62,NW,317,5.0,8.0,28,0.00,,,0.00,889,WeatherCatV1.02B3,2013-08-23 20:22:00,
2013-08-23 13:27:00,88.7,51.4,29.62,WNW,287,5.0,10.0,28,0.00,,,0.00,889,WeatherCatV1.02B3,2013-08-23 20:27:00,
2013-08-23 13:32:00,88.6,50.3,29.62,NW,305,6.0,11.0,27,0.00,,,0.00,886,WeatherCatV1.02B3,2013-08-23 20:32:00,
2013-08-23 13:37:00,89.5,51.1,29.62,NW,307,3.0,10.0,27,0.00,,,0.00,884,WeatherCatV1.02B3,2013-08-23 20:37:00,
2013-08-23 13:42:00,89.5,50.0,29.62,WNW,284,4.0,9.0,26,0.00,,,0.00,881,WeatherCatV1.02B3,2013-08-23 20:42:00,
2013-08-23 13:47:00,89.7,50.2,29.62,NNW,329,6.0,9.0,26,0.00,,,0.00,877,WeatherCatV1.02B3,2013-08-23 20:47:00,
2013-08-23 13:52:00,89.5,49.0,29.62,West,274,8.0,10.0,25,0.00,,,0.00,872,WeatherCatV1.02B3,2013-08-23 20:52:00,
2013-08-23 13:57:00,89.5,50.0,29.62,NW,321,3.0,8.0,26,0.00,,,0.00,868,WeatherCatV1.02B3,2013-08-23 20:57:00,
2013-08-23 14:02:00,89.8,47.0,29.62,West,278,4.0,7.0,23,0.00,,,0.00,860,WeatherCatV1.02B3,2013-08-23 21:02:00,
2013-08-23 14:08:00,90.5,47.6,29.62,NNE,25,2.0,5.0,23,0.00,,,0.00,856,WeatherCatV1.02B3,2013-08-23 21:08:00,
2013-08-23 14:13:00,90.1,47.3,29.62,West,280,0.0,4.0,23,0.00,,,0.00,851,WeatherCatV1.02B3,2013-08-23 21:13:00,
2013-08-23 14:18:00,91.7,48.6,29.62,ENE,66,2.0,4.0,23,0.00,,,0.00,847,WeatherCatV1.02B3,2013-08-23 21:18:00,
2013-08-23 14:23:00,92.4,46.8,29.62,NNE,32,0.0,3.0,21,0.00,,,0.00,840,WeatherCatV1.02B3,2013-08-23 21:23:00,
2013-08-23 14:28:00,92.1,47.7,29.62,ENE,72,2.0,5.0,22,0.00,,,0.00,837,WeatherCatV1.02B3,2013-08-23 21:28:00,
2013-08-23 14:33:00,92.1,46.5,29.62,ENE,67,1.0,3.0,21,0.00,,,0.00,830,WeatherCatV1.02B3,2013-08-23 21:33:00,
2013-08-23 14:38:00,92.0,45.1,29.62,NNE,28,0.0,1.0,20,0.00,,,0.00,819,WeatherCatV1.02B3,2013-08-23 21:38:00,
2013-08-23 14:43:00,92.4,46.8,29.62,ENE,61,2.0,5.0,21,0.00,,,0.00,814,WeatherCatV1.02B3,2013-08-23 21:43:00,
2013-08-23 14:48:00,92.3,46.7,29.62,East,93,3.0,5.0,21,0.00,,,0.00,800,WeatherCatV1.02B3,2013-08-23 21:48:00,
2013-08-23 14:53:00,92.8,45.8,29.62,ENE,70,2.0,4.0,20,0.00,,,0.00,795,WeatherCatV1.02B3,2013-08-23 21:53:00,
2013-08-23 14:58:00,93.5,47.7,29.62,WNW,290,3.0,3.0,21,0.00,,,0.00,784,WeatherCatV1.02B3,2013-08-23 21:58:00,
2013-08-23 15:03:00,93.2,46.1,29.62,West,263,0.0,2.0,20,0.00,,,0.00,775,WeatherCatV1.02B3,2013-08-23 22:03:00,
2013-08-23 15:08:00,93.3,44.8,29.62,ENE,78,3.0,4.0,19,0.00,,,0.00,765,WeatherCatV1.02B3,2013-08-23 22:08:00,
2013-08-23 15:13:00,93.8,45.3,29.62,ENE,76,4.0,8.0,19,0.00,,,0.00,752,WeatherCatV1.02B3,2013-08-23 22:13:00,
2013-08-23 15:18:00,93.2,43.3,29.62,NNW,341,0.0,6.0,18,0.00,,,0.00,745,WeatherCatV1.02B3,2013-08-23 22:18:00,
2013-08-23 15:23:00,93.1,47.3,29.62,NNE,30,0.0,1.0,21,0.00,,,0.00,733,WeatherCatV1.02B3,2013-08-23 22:23:00,
2013-08-23 15:28:00,93.7,43.8,29.62,East,84,0.0,2.0,18,0.00,,,0.00,722,WeatherCatV1.02B3,2013-08-23 22:28:00,
2013-08-23 15:33:00,93.2,43.3,29.62,East,92,3.0,8.0,18,0.00,,,0.00,708,WeatherCatV1.02B3,2013-08-23 22:33:00,
2013-08-23 15:38:00,92.8,43.0,29.62,SSW,202,1.0,7.0,18,0.00,,,0.00,701,WeatherCatV1.02B3,2013-08-23 22:38:00,
2013-08-23 15:43:00,93.4,44.9,29.62,ESE,109,0.0,2.0,19,0.00,,,0.00,687,WeatherCatV1.02B3,2013-08-23 22:43:00,
2013-08-23 15:48:00,92.8,43.0,29.62,NW,306,1.0,3.0,18,0.00,,,0.00,673,WeatherCatV1.02B3,2013-08-23 22:48:00,
2013-08-23 15:53:00,93.2,44.8,29.62,NE,49,1.0,2.0,19,0.00,,,0.00,663,WeatherCatV1.02B3,2013-08-23 22:53:00,
2013-08-23 15:58:00,93.8,45.3,29.62,NW,311,1.0,4.0,19,0.00,,,0.00,647,WeatherCatV1.02B3,2013-08-23 22:58:00,
2013-08-23 16:03:00,92.3,47.9,29.62,SSE,150,1.0,2.0,22,0.00,,,0.00,633,WeatherCatV1.02B3,2013-08-23 23:03:00,
2013-08-23 16:08:00,92.2,50.2,29.62,NW,307,4.0,7.0,24,0.00,,,0.00,621,WeatherCatV1.02B3,2013-08-23 23:08:00,
2013-08-23 16:13:00,91.3,48.3,29.62,WNW,292,5.0,5.0,23,0.00,,,0.00,605,WeatherCatV1.02B3,2013-08-23 23:13:00,
2013-08-23 16:18:00,92.0,46.4,29.62,SSW,198,2.0,3.0,21,0.00,,,0.00,592,WeatherCatV1.02B3,2013-08-23 23:18:00,
2013-08-23 16:23:00,91.6,48.5,29.62,NE,36,0.0,3.0,23,0.00,,,0.00,578,WeatherCatV1.02B3,2013-08-23 23:23:00,
2013-08-23 16:28:00,91.3,48.3,29.62,WNW,302,4.0,6.0,23,0.00,,,0.00,563,WeatherCatV1.02B3,2013-08-23 23:28:00,
2013-08-23 16:33:00,91.5,49.6,29.62,West,266,4.0,8.0,24,0.00,,,0.00,547,WeatherCatV1.02B3,2013-08-23 23:33:00,
2013-08-23 16:38:00,90.9,46.8,29.62,NE,41,2.0,3.0,22,0.00,,,0.00,533,WeatherCatV1.02B3,2013-08-23 23:38:00,
2013-08-23 16:43:00,91.2,45.8,29.62,ENE,73,2.0,6.0,21,0.00,,,0.00,517,WeatherCatV1.02B3,2013-08-23 23:43:00,
2013-08-23 16:48:00,90.9,44.2,29.62,SE,127,2.0,3.0,20,0.00,,,0.00,501,WeatherCatV1.02B3,2013-08-23 23:48:00,
2013-08-23 16:53:00,91.5,44.7,29.62,West,274,2.0,6.0,20,0.00,,,0.00,485,WeatherCatV1.02B3,2013-08-23 23:53:00,
2013-08-23 16:58:00,91.3,41.8,29.62,ENE,75,1.0,3.0,18,0.00,,,0.00,469,WeatherCatV1.02B3,2013-08-23 23:58:00,
2013-08-23 17:03:00,91.5,42.0,29.62,ESE,105,0.0,5.0,18,0.00,,,0.00,455,WeatherCatV1.02B3,2013-08-24 00:03:00,
2013-08-23 17:08:00,91.1,41.7,29.62,ESE,123,2.0,3.0,18,0.00,,,0.00,439,WeatherCatV1.02B3,2013-08-24 00:08:00,
2013-08-23 17:13:00,90.8,41.4,29.62,NNW,340,2.0,5.0,18,0.00,,,0.00,427,WeatherCatV1.02B3,2013-08-24 00:13:00,
2013-08-23 17:18:00,90.7,44.1,29.62,North,355,1.0,5.0,20,0.00,,,0.00,408,WeatherCatV1.02B3,2013-08-24 00:18:00,
2013-08-23 17:23:00,90.3,42.4,29.62,WNW,292,2.0,5.0,19,0.00,,,0.00,390,WeatherCatV1.02B3,2013-08-24 00:23:00,
2013-08-23 17:28:00,90.4,43.8,29.62,WSW,255,3.0,8.0,20,0.00,,,0.00,374,WeatherCatV1.02B3,2013-08-24 00:28:00,
2013-08-23 17:33:00,90.2,44.9,29.62,WNW,296,3.0,7.0,21,0.00,,,0.00,355,WeatherCatV1.02B3,2013-08-24 00:33:00,
2013-08-23 17:38:00,89.7,45.8,29.62,WNW,289,4.0,6.0,22,0.00,,,0.00,343,WeatherCatV1.02B3,2013-08-24 00:38:00,
2013-08-23 17:43:00,89.2,47.6,29.62,WNW,296,3.0,4.0,24,0.00,,,0.00,325,WeatherCatV1.02B3,2013-08-24 00:43:00,
2013-08-23 17:48:00,88.9,42.6,29.62,WNW,296,3.0,5.0,20,0.00,,,0.00,308,WeatherCatV1.02B3,2013-08-24 00:48:00,
2013-08-23 17:53:00,89.0,44.0,29.62,NW,324,1.0,4.0,21,0.00,,,0.00,290,WeatherCatV1.02B3,2013-08-24 00:53:00,
2013-08-23 17:58:00,88.8,46.2,29.62,WNW,288,5.0,5.0,23,0.00,,,0.00,271,WeatherCatV1.02B3,2013-08-24 00:58:00,
2013-08-23 18:03:00,88.6,49.3,29.62,West,275,5.0,7.0,26,0.00,,,0.00,253,WeatherCatV1.02B3,2013-08-24 01:03:00,
2013-08-23 18:08:00,87.4,52.1,29.62,West,271,4.0,4.0,30,0.00,,,0.00,237,WeatherCatV1.02B3,2013-08-24 01:08:00,
2013-08-23 18:13:00,86.7,53.3,29.62,West,265,4.0,4.0,32,0.00,,,0.00,216,WeatherCatV1.02B3,2013-08-24 01:13:00,
2013-08-23 18:18:00,86.4,53.0,29.62,WNW,301,3.0,4.0,32,0.00,,,0.00,199,WeatherCatV1.02B3,2013-08-24 01:18:00,
2013-08-23 18:23:00,86.1,51.9,29.62,WNW,300,2.0,4.0,31,0.00,,,0.00,176,WeatherCatV1.02B3,2013-08-24 01:23:00,
2013-08-23 18:28:00,85.9,51.7,29.62,WNW,293,3.0,5.0,31,0.00,,,0.00,155,WeatherCatV1.02B3,2013-08-24 01:28:00,
2013-08-23 18:33:00,85.3,52.9,29.62,SW,224,2.0,4.0,33,0.00,,,0.00,134,WeatherCatV1.02B3,2013-08-24 01:33:00,
2013-08-23 18:38:00,84.7,52.4,29.62,WSW,250,4.0,5.0,33,0.00,,,0.00,69,WeatherCatV1.02B3,2013-08-24 01:38:00,
2013-08-23 18:43:00,83.9,52.5,29.62,West,265,2.0,4.0,34,0.00,,,0.00,23,WeatherCatV1.02B3,2013-08-24 01:43:00,
2013-08-23 18:48:00,82.8,53.1,29.62,WSW,255,3.0,4.0,36,0.00,,,0.00,21,WeatherCatV1.02B3,2013-08-24 01:48:00,
2013-08-23 18:53:00,82.1,53.9,29.62,WSW,246,1.0,3.0,38,0.00,,,0.00,19,WeatherCatV1.02B3,2013-08-24 01:53:00,
2013-08-23 18:58:00,81.3,54.6,29.62,West,261,1.0,2.0,40,0.00,,,0.00,18,WeatherCatV1.02B3,2013-08-24 01:58:00,
2013-08-23 19:03:00,80.6,54.7,29.62,WNW,284,0.0,2.0,41,0.00,,,0.00,16,WeatherCatV1.02B3,2013-08-24 02:03:00,
2013-08-23 19:08:00,79.1,55.3,29.62,WNW,284,0.0,0.0,44,0.00,,,0.00,14,WeatherCatV1.02B3,2013-08-24 02:08:00,
2013-08-23 19:13:00,78.2,54.5,29.62,WNW,284,1.0,1.0,44,0.00,,,0.00,12,WeatherCatV1.02B3,2013-08-24 02:13:00,
2013-08-23 19:18:00,77.4,55.0,29.62,WNW,284,0.0,1.0,46,0.00,,,0.00,11,WeatherCatV1.02B3,2013-08-24 02:18:00,
2013-08-23 19:23:00,75.9,54.2,29.62,WNW,284,0.0,0.0,47,0.00,,,0.00,9,WeatherCatV1.02B3,2013-08-24 02:23:00,
2013-08-23 19:28:00,75.0,54.5,29.62,WNW,284,0.0,0.0,49,0.00,,,0.00,5,WeatherCatV1.02B3,2013-08-24 02:28:00,
2013-08-23 19:33:00,74.6,55.3,29.62,WNW,284,0.0,1.0,51,0.00,,,0.00,5,WeatherCatV1.02B3,2013-08-24 02:33:00,
2013-08-23 19:38:00,74.0,55.2,29.62,WNW,284,0.0,0.0,52,0.00,,,0.00,0,WeatherCatV1.02B3,2013-08-24 02:38:00,
2013-08-23 19:43:00,73.4,55.2,29.62,WNW,284,0.0,0.0,53,0.00,,,0.00,0,WeatherCatV1.02B3,2013-08-24 02:43:00,
2013-08-23 19:48:00,72.6,54.0,29.62,WNW,284,0.0,0.0,52,0.00,,,0.00,0,WeatherCatV1.02B3,2013-08-24 02:48:00,
2013-08-23 19:53:00,71.8,54.2,29.62,WNW,284,0.0,0.0,54,0.00,,,0.00,0,WeatherCatV1.02B3,2013-08-24 02:53:00,
2013-08-23 19:58:00,71.2,54.2,29.62,WNW,284,0.0,0.0,55,0.00,,,0.00,0,WeatherCatV1.02B3,2013-08-24 02:58:00,
2013-08-23 20:03:00,71.0,55.0,29.62,WNW,284,0.0,1.0,57,0.00,,,0.00,0,WeatherCatV1.02B3,2013-08-24 03:03:00,
2013-08-23 20:08:00,70.3,54.3,29.62,WNW,284,0.0,0.0,57,0.00,,,0.00,0,WeatherCatV1.02B3,2013-08-24 03:08:00,
2013-08-23 20:14:00,70.1,55.1,29.62,WNW,284,0.0,0.0,59,0.00,,,0.00,0,WeatherCatV1.02B3,2013-08-24 03:14:00,
2013-08-23 20:19:00,69.3,54.3,29.62,WNW,284,0.0,0.0,59,0.00,,,0.00,0,WeatherCatV1.02B3,2013-08-24 03:19:00,
2013-08-23 20:24:00,68.7,54.7,29.62,WNW,284,0.0,0.0,61,0.00,,,0.00,0,WeatherCatV1.02B3,2013-08-24 03:24:00,
2013-08-23 20:29:00,68.1,54.1,29.62,WNW,284,0.0,0.0,61,0.00,,,0.00,0,WeatherCatV1.02B3,2013-08-24 03:29:00,
2013-08-23 20:34:00,67.5,53.1,29.62,WNW,284,0.0,0.0,60,0.00,,,0.00,0,WeatherCatV1.02B3,2013-08-24 03:34:00,
2013-08-23 20:39:00,67.2,54.2,29.62,WNW,284,0.0,0.0,63,0.00,,,0.00,0,WeatherCatV1.02B3,2013-08-24 03:39:00,
2013-08-23 20:44:00,66.7,53.3,29.62,WNW,284,0.0,0.0,62,0.00,,,0.00,0,WeatherCatV1.02B3,2013-08-24 03:44:00,
2013-08-23 20:49:00,66.2,53.7,29.62,WNW,284,0.0,0.0,64,0.00,,,0.00,0,WeatherCatV1.02B3,2013-08-24 03:49:00,
2013-08-23 20:54:00,65.9,53.8,29.62,WNW,284,0.0,0.0,65,0.00,,,0.00,0,WeatherCatV1.02B3,2013-08-24 03:54:00,
2013-08-23 20:59:00,65.4,53.7,29.62,WNW,284,0.0,0.0,66,0.00,,,0.00,0,WeatherCatV1.02B3,2013-08-24 03:59:00,
2013-08-23 21:01:00,65.4,54.1,29.62,WNW,284,0.0,0.0,67,0.00,,,0.00,0,WeatherCatV1.02B3,2013-08-24 04:01:00,
2013-08-23 21:06:00,65.1,53.9,29.62,WNW,284,0.0,0.0,67,0.00,,,0.00,0,WeatherCatV1.02B3,2013-08-24 04:06:00,
2013-08-23 21:11:00,64.9,53.7,29.62,WNW,284,0.0,0.0,67,0.00,,,0.00,0,WeatherCatV1.02B3,2013-08-24 04:11:00,
2013-08-23 21:16:00,64.9,54.1,29.62,WNW,284,0.0,1.0,68,0.00,,,0.00,0,WeatherCatV1.02B3,2013-08-24 04:16:00,
2013-08-23 21:21:00,64.2,53.8,29.62,WNW,284,0.0,0.0,69,0.00,,,0.00,0,WeatherCatV1.02B3,2013-08-24 04:21:00,
2013-08-23 21:26:00,64.4,54.0,29.62,WNW,284,0.0,0.0,69,0.00,,,0.00,0,WeatherCatV1.02B3,2013-08-24 04:26:00,
2013-08-23 21:31:00,64.7,54.3,29.62,WNW,284,0.0,0.0,69,0.00,,,0.00,0,WeatherCatV1.02B3,2013-08-24 04:31:00,
2013-08-23 21:36:00,64.3,53.5,29.62,WNW,284,0.0,0.0,68,0.00,,,0.00,0,WeatherCatV1.02B3,2013-08-24 04:36:00,
2013-08-23 21:41:00,64.0,53.6,29.62,WNW,284,0.0,0.0,69,0.00,,,0.00,0,WeatherCatV1.02B3,2013-08-24 04:41:00,
2013-08-23 21:46:00,63.5,53.9,29.62,WNW,284,0.0,0.0,71,0.00,,,0.00,0,WeatherCatV1.02B3,2013-08-24 04:46:00,
2013-08-23 21:51:00,63.4,53.4,29.62,WNW,284,0.0,0.0,70,0.00,,,0.00,0,WeatherCatV1.02B3,2013-08-24 04:51:00,
2013-08-23 21:56:00,63.2,54.0,29.62,WNW,284,0.0,0.0,72,0.00,,,0.00,0,WeatherCatV1.02B3,2013-08-24 04:56:00,
2013-08-23 22:01:00,62.8,53.3,29.62,WNW,284,0.0,0.0,71,0.00,,,0.00,0,WeatherCatV1.02B3,2013-08-24 05:01:00,
2013-08-23 22:06:00,62.7,53.2,29.62,WNW,284,0.0,0.0,71,0.00,,,0.00,0,WeatherCatV1.02B3,2013-08-24 05:06:00,
2013-08-23 22:11:00,62.5,53.0,29.62,WNW,284,0.0,0.0,71,0.00,,,0.00,0,WeatherCatV1.02B3,2013-08-24 05:11:00,
2013-08-23 22:16:00,62.4,53.2,29.62,WNW,284,0.0,0.0,72,0.00,,,0.00,0,WeatherCatV1.02B3,2013-08-24 05:16:00,
2013-08-23 22:21:00,61.7,53.0,29.62,WNW,284,0.0,0.0,73,0.00,,,0.00,0,WeatherCatV1.02B3,2013-08-24 05:21:00,
2013-08-23 22:26:00,61.5,52.8,29.62,WNW,284,0.0,0.0,73,0.00,,,0.00,0,WeatherCatV1.02B3,2013-08-24 05:26:00,
2013-08-23 22:31:00,61.6,53.2,29.62,WNW,284,0.0,0.0,74,0.00,,,0.00,0,WeatherCatV1.02B3,2013-08-24 05:31:00,
2013-08-23 22:36:00,61.7,53.7,29.62,WNW,284,0.0,0.0,75,0.00,,,0.00,0,WeatherCatV1.02B3,2013-08-24 05:36:00,
2013-08-23 22:41:00,61.7,53.3,29.62,WNW,284,0.0,0.0,74,0.00,,,0.00,0,WeatherCatV1.02B3,2013-08-24 05:41:00,
2013-08-23 22:46:00,61.0,53.0,29.62,WNW,284,0.0,0.0,75,0.00,,,0.00,0,WeatherCatV1.02B3,2013-08-24 05:46:00,
2013-08-23 22:51:00,60.4,52.4,29.62,WNW,284,0.0,0.0,75,0.00,,,0.00,0,WeatherCatV1.02B3,2013-08-24 05:51:00,
2013-08-23 22:56:00,60.4,52.8,29.62,WNW,284,0.0,0.0,76,0.00,,,0.00,0,WeatherCatV1.02B3,2013-08-24 05:56:00,
2013-08-23 23:01:00,60.4,52.8,29.62,WNW,284,0.0,0.0,76,0.00,,,0.00,0,WeatherCatV1.02B3,2013-08-24 06:01:00,
2013-08-23 23:06:00,60.0,52.4,29.62,WNW,284,0.0,0.0,76,0.00,,,0.00,0,WeatherCatV1.02B3,2013-08-24 06:06:00,
2013-08-23 23:11:00,59.9,53.0,29.62,WNW,284,0.0,0.0,78,0.00,,,0.00,0,WeatherCatV1.02B3,2013-08-24 06:11:00,
2013-08-23 23:16:00,59.8,52.6,29.62,WNW,284,0.0,0.0,77,0.00,,,0.00,0,WeatherCatV1.02B3,2013-08-24 06:16:00,
2013-08-23 23:21:00,59.6,52.0,29.62,WNW,284,0.0,0.0,76,0.00,,,0.00,0,WeatherCatV1.02B3,2013-08-24 06:21:00,
2013-08-23 23:26:00,59.4,52.2,29.62,WNW,284,0.0,0.0,77,0.00,,,0.00,0,WeatherCatV1.02B3,2013-08-24 06:26:00,
2013-08-23 23:31:00,58.9,51.7,29.62,WNW,284,0.0,0.0,77,0.00,,,0.00,0,WeatherCatV1.02B3,2013-08-24 06:31:00,
2013-08-23 23:36:00,58.6,51.8,29.62,WNW,284,0.0,0.0,78,0.00,,,0.00,0,WeatherCatV1.02B3,2013-08-24 06:36:00,
2013-08-23 23:41:00,59.1,51.9,29.62,WNW,284,0.0,0.0,77,0.00,,,0.00,0,WeatherCatV1.02B3,2013-08-24 06:41:00,
2013-08-23 23:46:00,58.0,50.5,29.62,WNW,284,0.0,0.0,76,0.00,,,0.00,0,WeatherCatV1.02B3,2013-08-24 06:46:00,
2013-08-23 23:51:00,57.6,51.1,29.62,WNW,284,0.0,0.0,79,0.00,,,0.00,0,WeatherCatV1.02B3,2013-08-24 06:51:00,
2013-08-23 23:56:00,57.7,51.2,29.62,WNW,284,0.0,0.0,79,0.00,,,0.00,0,WeatherCatV1.02B3,2013-08-24 06:56:00,